When you browse on this site, cookies collect data to enhance your experience and personalize the content and advertising you see.
Visit our Privacy Policy to learn more. By continuing to use the site, you agree to this use of cookies and data.
  • In Österreich
  • Länderverzeichnis
  • Für 7 Tage
  • Wassertemperatur
  • Satellitenkarten
  • Wetterkarte
  • News
  • Widgets
  • user-avatar
    Anmelden

    Stündliche Wetter Vetchin

    Heute, 16 Juli, Dienstag

    Zeit Temperatur Niederschläge Wind Luftdruck Luftfeuchtigkeit
    00:00 +13°C° 0 mm 1 m/S 744 mmHg 91%
    01:00 +13°C° 0 mm 1 m/S 745 mmHg 91%
    02:00 +12°C° 0 mm 1 m/S 745 mmHg 90%
    03:00 +12°C° 0 mm 1 m/S 745 mmHg 90%
    04:00 +12°C° 0 mm 1 m/S 744 mmHg 90%
    05:00 +12°C° 0 mm 1 m/S 744 mmHg 90%
    06:00 +14°C° 0 mm 1 m/S 744 mmHg 84%
    07:00 +16°C° 0 mm 1 m/S 744 mmHg 79%
    08:00 +19°C° 0 mm 1 m/S 744 mmHg 73%
    09:00 +20°C° 0 mm 1 m/S 744 mmHg 66%
    10:00 +21°C° 0 mm 2 m/S 744 mmHg 60%
    11:00 +23°C° 0 mm 2 m/S 744 mmHg 53%
    12:00 +23°C° 0.1 mm 2 m/S 743 mmHg 54%
    13:00 +24°C° 0.1 mm 2 m/S 743 mmHg 55%
    14:00 +24°C° 0.1 mm 3 m/S 742 mmHg 57%
    15:00 +22°C° 0.2 mm 3 m/S 742 mmHg 60%
    16:00 +22°C° 0.2 mm 3 m/S 742 mmHg 63%
    17:00 +22°C° 0.2 mm 3 m/S 742 mmHg 65%
    18:00 +20°C° 0.4 mm 3 m/S 742 mmHg 72%
    19:00 +18°C° 0.4 mm 2 m/S 742 mmHg 79%
    20:00 +17°C° 0.4 mm 2 m/S 742 mmHg 86%
    21:00 +16°C° 0.5 mm 2 m/S 742 mmHg 89%
    22:00 +16°C° 0.5 mm 3 m/S 742 mmHg 91%
    23:00 +14°C° 0.5 mm 3 m/S 742 mmHg 93%

    Morgen, 17 Juli, Mittwoch

    Zeit Temperatur Niederschläge Wind Luftdruck Luftfeuchtigkeit
    00:00 +13°C° 0.3 mm 3 m/S 742 mmHg 94%
    01:00 +12°C° 0.3 mm 3 m/S 742 mmHg 95%
    02:00 +13°C° 0.3 mm 2 m/S 742 mmHg 95%
    03:00 +12°C° 0 mm 2 m/S 741 mmHg 96%
    04:00 +10°C° 0 mm 3 m/S 741 mmHg 97%
    05:00 +10°C° 0 mm 3 m/S 741 mmHg 98%
    06:00 +11°C° 0 mm 3 m/S 741 mmHg 94%
    07:00 +12°C° 0 mm 3 m/S 741 mmHg 91%
    08:00 +14°C° 0 mm 3 m/S 741 mmHg 88%
    09:00 +16°C° 0.2 mm 3 m/S 741 mmHg 83%
    10:00 +17°C° 0.2 mm 3 m/S 741 mmHg 77%
    11:00 +18°C° 0.2 mm 3 m/S 741 mmHg 71%
    12:00 +18°C° 0.8 mm 4 m/S 741 mmHg 72%
    13:00 +18°C° 0.8 mm 4 m/S 741 mmHg 73%
    14:00 +18°C° 0.8 mm 4 m/S 741 mmHg 74%
    15:00 +18°C° 0.3 mm 4 m/S 740 mmHg 74%
    16:00 +18°C° 0.3 mm 4 m/S 740 mmHg 73%
    17:00 +18°C° 0.3 mm 3 m/S 740 mmHg 73%
    18:00 +17°C° 0.4 mm 3 m/S 740 mmHg 79%
    19:00 +16°C° 0.4 mm 2 m/S 740 mmHg 86%
    20:00 +15°C° 0.4 mm 2 m/S 740 mmHg 92%
    21:00 +14°C° 0 mm 2 m/S 740 mmHg 93%
    22:00 +13°C° 0 mm 2 m/S 740 mmHg 95%
    23:00 +12°C° 0 mm 2 m/S 740 mmHg 97%

    übermorgen, 18 Juli, Donnerstag

    Zeit Temperatur Niederschläge Wind Luftdruck Luftfeuchtigkeit
    00:00 +11°C° 0 mm 3 m/S 741 mmHg 97%
    01:00 +11°C° 0 mm 3 m/S 741 mmHg 97%
    02:00 +10°C° 0 mm 3 m/S 741 mmHg 97%
    03:00 +10°C° 0 mm 3 m/S 741 mmHg 98%
    04:00 +10°C° 0 mm 3 m/S 741 mmHg 98%
    05:00 +10°C° 0 mm 3 m/S 741 mmHg 98%
    06:00 +11°C° 0 mm 3 m/S 741 mmHg 97%
    07:00 +12°C° 0 mm 4 m/S 741 mmHg 95%
    08:00 +13°C° 0 mm 4 m/S 741 mmHg 94%
    09:00 +13°C° 0 mm 4 m/S 741 mmHg 91%
    10:00 +14°C° 0 mm 4 m/S 742 mmHg 89%
    11:00 +15°C° 0 mm 4 m/S 742 mmHg 87%
    12:00 +17°C° 0 mm 4 m/S 742 mmHg 83%
    13:00 +17°C° 0 mm 5 m/S 742 mmHg 78%
    14:00 +19°C° 0 mm 5 m/S 742 mmHg 74%
    15:00 +19°C° 0.3 mm 5 m/S 742 mmHg 76%
    16:00 +19°C° 0.3 mm 4 m/S 742 mmHg 78%
    17:00 +19°C° 0.3 mm 4 m/S 742 mmHg 80%
    18:00 +18°C° 0.3 mm 4 m/S 742 mmHg 84%
    19:00 +18°C° 0.3 mm 3 m/S 742 mmHg 89%
    20:00 +17°C° 0.3 mm 3 m/S 742 mmHg 93%
    21:00 +16°C° 0 mm 3 m/S 743 mmHg 94%
    22:00 +16°C° 0 mm 3 m/S 743 mmHg 95%
    23:00 +14°C° 0 mm 3 m/S 743 mmHg 97%

    19 Juli, Freitag

    Zeit Temperatur Niederschläge Wind Luftdruck Luftfeuchtigkeit
    00:00 +14°C° 0 mm 3 m/S 744 mmHg 97%
    01:00 +13°C° 0 mm 3 m/S 744 mmHg 97%
    02:00 +13°C° 0 mm 3 m/S 744 mmHg 97%
    03:00 +13°C° 0 mm 3 m/S 744 mmHg 97%
    04:00 +13°C° 0 mm 3 m/S 744 mmHg 97%
    05:00 +12°C° 0 mm 3 m/S 745 mmHg 97%
    06:00 +14°C° 0 mm 3 m/S 745 mmHg 92%
    07:00 +15°C° 0 mm 4 m/S 745 mmHg 87%
    08:00 +18°C° 0 mm 4 m/S 745 mmHg 82%
    09:00 +19°C° 0 mm 4 m/S 746 mmHg 73%
    10:00 +21°C° 0 mm 4 m/S 746 mmHg 64%
    11:00 +23°C° 0 mm 5 m/S 746 mmHg 55%
    12:00 +23°C° 0 mm 5 m/S 746 mmHg 55%
    13:00 +23°C° 0 mm 4 m/S 746 mmHg 54%
    14:00 +25°C° 0 mm 4 m/S 746 mmHg 53%
    15:00 +25°C° 0.1 mm 4 m/S 746 mmHg 56%
    16:00 +25°C° 0.1 mm 4 m/S 746 mmHg 58%
    17:00 +24°C° 0.1 mm 3 m/S 746 mmHg 60%
    18:00 +22°C° 0 mm 3 m/S 746 mmHg 68%
    19:00 +20°C° 0 mm 2 m/S 747 mmHg 75%
    20:00 +18°C° 0 mm 2 m/S 747 mmHg 83%
    21:00 +17°C° 0 mm 2 m/S 747 mmHg 85%
    22:00 +16°C° 0 mm 2 m/S 747 mmHg 87%
    23:00 +15°C° 0 mm 1 m/S 748 mmHg 90%

    20 Juli, Samstag

    Zeit Temperatur Niederschläge Wind Luftdruck Luftfeuchtigkeit
    00:00 +15°C° 0 mm 1 m/S 748 mmHg 90%
    01:00 +14°C° 0 mm 1 m/S 748 mmHg 90%
    02:00 +14°C° 0 mm 1 m/S 748 mmHg 91%
    03:00 +14°C° 0 mm 1 m/S 748 mmHg 91%
    04:00 +14°C° 0 mm 1 m/S 748 mmHg 90%
    05:00 +14°C° 0 mm 1 m/S 748 mmHg 90%
    06:00 +16°C° 0 mm 1 m/S 748 mmHg 82%
    07:00 +19°C° 0 mm 1 m/S 749 mmHg 75%
    08:00 +21°C° 0 mm 1 m/S 749 mmHg 67%
    09:00 +23°C° 0 mm 1 m/S 749 mmHg 62%
    10:00 +24°C° 0 mm 1 m/S 749 mmHg 57%
    11:00 +25°C° 0 mm 1 m/S 749 mmHg 52%
    12:00 +26°C° 0 mm 1 m/S 749 mmHg 51%
    13:00 +26°C° 0 mm 1 m/S 749 mmHg 50%
    14:00 +26°C° 0 mm 1 m/S 748 mmHg 49%
    15:00 +26°C° 0.1 mm 1 m/S 748 mmHg 54%
    16:00 +25°C° 0.1 mm 1 m/S 748 mmHg 59%
    17:00 +25°C° 0.1 mm 1 m/S 748 mmHg 64%
    18:00 +23°C° 0.2 mm 1 m/S 748 mmHg 70%
    19:00 +21°C° 0.2 mm 1 m/S 748 mmHg 77%
    20:00 +20°C° 0.2 mm 1 m/S 748 mmHg 83%
    21:00 +19°C° 0 mm 1 m/S 749 mmHg 86%
    22:00 +18°C° 0 mm 1 m/S 749 mmHg 89%
    23:00 +18°C° 0 mm 1 m/S 749 mmHg 91%

    21 Juli, Sonntag

    Zeit Temperatur Niederschläge Wind Luftdruck Luftfeuchtigkeit
    00:00 +16°C° 0 mm 1 m/S 749 mmHg 92%
    01:00 +15°C° 0 mm 0 m/S 749 mmHg 92%
    02:00 +14°C° 0 mm 0 m/S 749 mmHg 92%
    03:00 +14°C° 0 mm 0 m/S 749 mmHg 92%
    04:00 +14°C° 0 mm 0 m/S 749 mmHg 92%
    05:00 +14°C° 0 mm 0 m/S 749 mmHg 92%
    06:00 +16°C° 0 mm 0 m/S 749 mmHg 87%
    07:00 +18°C° 0 mm 0 m/S 749 mmHg 81%
    08:00 +20°C° 0 mm 0 m/S 749 mmHg 75%
    09:00 +22°C° 0.1 mm 0 m/S 750 mmHg 69%
    10:00 +23°C° 0.1 mm 0 m/S 750 mmHg 62%
    11:00 +25°C° 0.1 mm 0 m/S 750 mmHg 55%
    12:00 +27°C° 0 mm 1 m/S 749 mmHg 52%
    13:00 +27°C° 0 mm 1 m/S 749 mmHg 49%
    14:00 +28°C° 0 mm 1 m/S 749 mmHg 46%
    15:00 +27°C° 0 mm 1 m/S 749 mmHg 49%
    16:00 +27°C° 0 mm 1 m/S 749 mmHg 52%
    17:00 +26°C° 0 mm 1 m/S 749 mmHg 55%
    18:00 +25°C° 0 mm 1 m/S 749 mmHg 61%
    19:00 +23°C° 0 mm 1 m/S 749 mmHg 68%
    20:00 +21°C° 0 mm 1 m/S 749 mmHg 74%
    21:00 +20°C° 0.1 mm 1 m/S 749 mmHg 75%
    22:00 +20°C° 0.1 mm 1 m/S 749 mmHg 76%
    23:00 +19°C° 0.1 mm 1 m/S 749 mmHg 77%
    Mehr zeigen